Location: Brantley
(31.5822°N, 86.2569°W)
Time: 03:11:49
(UTC+00:00)

Vanguard 3 - Pass Details

Date: 23 February 2026
Orbit: 507 x 3205 km, 33.4° (Epoch: 7 March)

Event Time Altitude Azimuth Distance (km) Brightness Sun altitude
Rises 14:56:13 0° 183° (S) 7,050 12.3 30.0°
Reaches altitude 10° 15:06:26 10° 157° (SSE) 6,103 12.7 31.8°
Maximum altitude 15:12:13 12° 139° (SE) 5,814 13.0 32.7°
Drops below altitude 10° 15:17:43 10° 121° (ESE) 5,782 12.9 33.6°
Sets 15:26:17 0° 95° (E) 6,274 12.3 35.0°
